Home   Weather   Foochow   Past weeks

Flag for China Past Weather in Foochow, Fujian, China — Yesterday and Last 2 Weeks

Now
61 °F

Clear.


Feels Like: 61 °F
Forecast: 50 / 75 °F
Wind: 3 mph from North

Location: Fuzhou Airport

Current Time: Apr 24, 2017 at 3:40:40 am

Latest Report: Apr 24, 2017 at 3:00 am


Visibility: 4 mi

Pressure: 30.01 "Hg

Humidity: 83%

Dew Point: 55 °F

Location of FoochowLocation

Past Weather in Foochow — Graph

°F

Foochow Temperature Yesterday

Maximum temperature yesterday: 70 °F (at 12:00 pm)
Minimum temperature yesterday: 61 °F (at 2:00 am)
Average temperature yesterday: 65 °F

High & Low Weather Summary for the Past Weeks

 TemperatureHumidityPressure
High84 °F (Apr 17, 10:00 am)100% (Apr 9, 3:00 am)30.15 "Hg (Apr 9, 3:00 am)
Low55 °F (Apr 14, 3:00 am)27% (Apr 14, 12:00 pm)29.65 "Hg (Apr 9, 3:00 pm)
Average67 °F84%29.89 "Hg
* Reported Apr 9 2:00 am — Apr 24 2:00 am, Foochow, Weather by CustomWeather, © 2017

Note: Actual official high and low records may vary slightly from our data, if they occured in-between our weather recording intervals... More about our weather records

Advertising

Foochow Weather History for the Previous 24 Hours

Scroll right to see more
 ConditionsComfort  
Time TempWeatherWind HumidityBarometerVisibility
2:00 am
Mon, Apr 24
61 °FClear.3 mph88%30.01 "Hg4 mi
1:00 am61 °FFog.3 mph88%30.04 "Hg3 mi
12:00 am63 °FFog.3 mph88%30.04 "Hg2 mi
11:00 pm
Sun, Apr 23
63 °FFog.3 mph88%30.04 "Hg2 mi
10:00 pm63 °FFog.3 mph88%30.04 "Hg3 mi
9:00 pm63 °FClear.3 mph88%30.04 "Hg4 mi
8:00 pm63 °FClear.6 mph88%30.01 "Hg4 mi
7:00 pm63 °FClear.6 mph88%30.01 "Hg5 mi
6:00 pm64 °FSunny.8 mph83%30.01 "Hg10 mi
5:00 pm68 °FSunny.8 mph73%30.01 "Hg10 mi
4:00 pm68 °FSunny.13 mph73%30.01 "Hg10 mi
3:00 pm70 °FSunny.13 mph64%30.01 "Hg10 mi
2:00 pm70 °FPassing clouds.15 mph64%30.01 "HgN/A
1:00 pm70 °FPassing clouds.15 mph60%30.04 "HgN/A
12:00 pm70 °FPassing clouds.15 mph64%30.04 "HgN/A
11:00 am68 °FPassing clouds.13 mph69%30.07 "HgN/A
10:00 am68 °FSunny.13 mph69%30.07 "Hg10 mi
9:00 am66 °FSunny.15 mph68%30.07 "Hg10 mi
8:00 am64 °FSunny.15 mph73%30.04 "Hg10 mi
7:00 am63 °FSunny.8 mph73%30.07 "Hg10 mi
6:00 am61 °FSunny.6 mph77%30.04 "Hg10 mi
5:00 am61 °FClear.6 mph77%30.01 "Hg10 mi
4:00 am61 °FClear.6 mph83%30.01 "Hg10 mi
Weather by CustomWeather, © 2017

See weather overviewHow to use our weather pages